ISS (ZARYA)

Last updated on Wed Mar 11 2026 00:02:13 GMT+0000 (Coordinated Universal Time)

1 25544U 98067A 26069.48132270 .00008982 00000+0 17349-3 0 9993 2 25544 51.6323 68.4424 0007951 177.3714 182.7318 15.48562436556451
UTC large
Height (km)
Speed (km/s)
/
Latitude / Longitude
Inclination (degrees)
Orbital Period (minutes)
Azimuth
Elevation
Range (km)
Doppler Factor

Next 0 passes for location: London (51.5072 / 0.1276)

Sorry there are no passes over London.